Weather History for New Richmond, WI

Change the Weather History Date:

Wednesday, April 24, 2013

  Actual Average (KMSP) Record (KMSP)
Temperature  
Mean Temperature 34 °F 52 °F  
Max Temperature 46 °F 62 °F 84 °F (1962)
Min Temperature 23 °F 41 °F 24 °F (1875)
Degree Days  
Heating Degree Days 30 14  
Month to date heating degree days 458  
Since 1 July heating degree days 7246  
Cooling Degree Days 0 0  
Month to date cooling degree days 0  
Year to date cooling degree days 0  
Moisture  
Dew Point 27 °F    
Average Humidity 75    
Maximum Humidity 100    
Minimum Humidity 49    
Precipitation  
Precipitation 0.00 in 0.10 in 1.43 in (1908)
Month to date precipitation 2.02  
Year to date precipitation 5.58  
Snow  
Snow 0.00 in 0.00 in 0.30 in (1902)
Month to date snowfall 2.1  
Since 1 July snowfall 54.1  
Snow Depth -    
Sea Level Pressure  
Sea Level Pressure 29.98 in    
Wind  
Wind Speed 8 mph (SW)    
Max Wind Speed 25 mph    
Max Gust Speed 34 mph    
Visibility 10 miles    
Events Rain    
T = Trace of Precipitation, MM = Missing Value Source: NWS Daily Summary

Daily Weather History Graph

Daily Weather History Graph

Search for Another Location

Airport:

Trip Planner

Search our weather history database for the weather conditions in past years. The results will help you decide how hot, cold, wet, or windy it might be!

Date:

Astronomy

Apr. 24, 2013 Rise Set
Actual Time 6:09 AM CDT 8:07 PM CDT
Civil Twilight 5:37 AM CDT 8:39 PM CDT
Nautical Twilight 4:59 AM CDT 9:18 PM CDT
Astronomical Twilight 4:16 AM CDT 10:01 PM CDT
Moon 7:10 PM CDT (4/24) 5:16 AM CDT (4/24)
Length of Visible Light 15h 01m
Length of Day
13h 58m
Waxing Gibbous, 98% of the Moon is Illuminated
Apr 24
Waxing Gibbous
Apr 25
Full
May 2
Last Quarter
May 9
New
May 17
First Quarter

Hourly Weather History & Observations

Time (CDT) Temp. Windchill Dew Point Humidity Pressure Visibility Wind Dir Wind Speed Gust Speed Precip Events Conditions
12:15 AM 30.2 °F 23.4 °F 21.2 °F 69% 30.05 in 10.0 mi WNW 6.9 mph - N/A   Clear
12:35 AM 28.4 °F 21.2 °F 21.2 °F 74% 30.05 in 10.0 mi WNW 6.9 mph - N/A   Clear
12:55 AM 30.2 °F 22.6 °F 21.2 °F 69% 30.05 in 10.0 mi WNW 8.1 mph - N/A   Clear
1:15 AM 30.2 °F 22.6 °F 21.2 °F 69% 30.04 in 10.0 mi WNW 8.1 mph - N/A   Clear
1:35 AM 28.4 °F 20.4 °F 21.2 °F 74% 30.04 in 10.0 mi WNW 8.1 mph - N/A   Clear
1:55 AM 28.4 °F 20.4 °F 21.2 °F 74% 30.04 in 10.0 mi WNW 8.1 mph - N/A   Clear
2:15 AM 28.4 °F 22.2 °F 19.4 °F 69% 30.03 in 10.0 mi WNW 5.8 mph - N/A   Clear
2:35 AM 24.8 °F 20.5 °F 19.4 °F 80% 30.03 in 10.0 mi West 3.5 mph - N/A   Clear
2:55 AM 26.6 °F - 21.2 °F 80% 30.03 in 10.0 mi Calm Calm - N/A   Clear
3:15 AM 26.6 °F 21.2 °F 21.2 °F 80% 30.04 in 10.0 mi SW 4.6 mph - N/A   Clear
3:35 AM 26.6 °F 22.6 °F 21.2 °F 80% 30.04 in 10.0 mi SSW 3.5 mph - N/A   Clear
3:55 AM 26.6 °F - 21.2 °F 80% 30.04 in 10.0 mi Calm Calm - N/A   Clear
4:15 AM 23.0 °F - 19.4 °F 86% 30.04 in 10.0 mi Calm Calm - N/A   Clear
4:35 AM 23.0 °F - 21.2 °F 93% 30.04 in 10.0 mi Calm Calm - N/A   Clear
4:55 AM 24.8 °F 20.5 °F 21.2 °F 86% 30.03 in 10.0 mi SSW 3.5 mph - N/A   Clear
5:15 AM 23.0 °F 17.0 °F 21.2 °F 93% 30.03 in 10.0 mi SSW 4.6 mph - N/A   Clear
5:35 AM 23.0 °F 18.4 °F 21.2 °F 93% 30.03 in 10.0 mi SSW 3.5 mph - N/A   Clear
5:55 AM 23.0 °F 18.4 °F 21.2 °F 93% 30.03 in 10.0 mi SSW 3.5 mph - N/A   Clear
6:15 AM 23.0 °F 17.0 °F 21.2 °F 93% 30.02 in 10.0 mi SSW 4.6 mph - N/A   Clear
6:35 AM 23.0 °F 17.0 °F 23.0 °F 100% 30.02 in 7.0 mi SSW 4.6 mph - N/A   Clear
6:55 AM 26.6 °F 21.2 °F 23.0 °F 86% 30.02 in 7.0 mi SSW 4.6 mph - N/A   Clear
7:15 AM 26.6 °F 21.2 °F 23.0 °F 86% 30.02 in 7.0 mi SW 4.6 mph - N/A   Clear
7:35 AM 28.4 °F 22.2 °F 23.0 °F 80% 30.02 in 7.0 mi SSW 5.8 mph - N/A   Scattered Clouds
7:55 AM 28.4 °F 22.2 °F 24.8 °F 86% 30.02 in 7.0 mi SSW 5.8 mph - N/A   Clear
8:15 AM 30.2 °F 24.3 °F 24.8 °F 80% 30.02 in 10.0 mi South 5.8 mph - N/A   Clear
8:35 AM 30.2 °F 24.3 °F 24.8 °F 80% 30.01 in 10.0 mi South 5.8 mph - N/A   Scattered Clouds
8:55 AM 32.0 °F 26.4 °F 26.6 °F 80% 30.00 in 10.0 mi South 5.8 mph - N/A   Clear
9:15 AM 32.0 °F 24.8 °F 26.6 °F 80% 30.00 in 10.0 mi South 8.1 mph - N/A   Clear
9:35 AM 33.8 °F 27.7 °F 26.6 °F 75% 29.99 in 10.0 mi SSW 6.9 mph - N/A   Clear
9:55 AM 33.8 °F 27.7 °F 26.6 °F 75% 29.99 in 10.0 mi South 6.9 mph - N/A   Clear
10:15 AM 35.6 °F 28.0 °F 26.6 °F 70% 29.99 in 10.0 mi South 10.4 mph - N/A   Clear
10:35 AM 35.6 °F 27.5 °F 26.6 °F 70% 29.99 in 10.0 mi South 11.5 mph - N/A   Clear
10:55 AM 37.4 °F 30.8 °F 28.4 °F 70% 29.98 in 10.0 mi SSW 9.2 mph - N/A   Clear
11:15 AM 37.4 °F 29.8 °F 28.4 °F 70% 29.98 in 10.0 mi South 11.5 mph - N/A   Scattered Clouds
11:35 AM 37.4 °F 29.3 °F 28.4 °F 70% 29.98 in 10.0 mi SSW 12.7 mph - N/A   Scattered Clouds
11:55 AM 39.2 °F 32.5 °F 28.4 °F 65% 29.97 in 10.0 mi SSW 10.4 mph - N/A   Clear
12:15 PM 41.0 °F 33.9 °F 28.4 °F 61% 29.97 in 10.0 mi SW 12.7 mph 18.4 mph N/A   Clear
12:35 PM 41.0 °F 34.7 °F 30.2 °F 65% 29.97 in 10.0 mi SSW 10.4 mph - N/A   Clear
12:55 PM 41.0 °F 33.9 °F 30.2 °F 65% 29.96 in 10.0 mi SSW 12.7 mph 19.6 mph N/A   Clear
1:15 PM 42.8 °F 36.6 °F 30.2 °F 61% 29.95 in 10.0 mi SSW 11.5 mph - N/A   Clear
1:35 PM 44.6 °F 38.8 °F 30.2 °F 57% 29.94 in 10.0 mi SSW 11.5 mph - N/A   Clear
1:55 PM 44.6 °F 38.1 °F 30.2 °F 57% 29.93 in 10.0 mi SSW 13.8 mph 20.7 mph N/A   Scattered Clouds
2:15 PM 44.6 °F 37.2 °F 30.2 °F 57% 29.92 in 10.0 mi SSW 17.3 mph 20.7 mph N/A   Scattered Clouds
2:35 PM 46.4 °F 39.0 °F 28.4 °F 50% 29.92 in 10.0 mi SW 19.6 mph 28.8 mph N/A   Scattered Clouds
2:55 PM 46.4 °F 39.2 °F 28.4 °F 50% 29.92 in 10.0 mi SW 18.4 mph 28.8 mph N/A   Scattered Clouds
3:15 PM 46.4 °F 38.1 °F 30.2 °F 53% 29.90 in 10.0 mi SSW 24.2 mph 31.1 mph N/A   Mostly Cloudy
3:35 PM 46.4 °F 39.0 °F 28.4 °F 50% 29.91 in 10.0 mi SW 19.6 mph 28.8 mph N/A   Overcast
3:55 PM 46.4 °F 38.7 °F 28.4 °F 50% 29.90 in 10.0 mi SW 20.7 mph 27.6 mph N/A   Mostly Cloudy
4:15 PM 46.4 °F 39.0 °F 28.4 °F 50% 29.90 in 10.0 mi SW 19.6 mph 32.2 mph N/A   Mostly Cloudy
4:35 PM 44.6 °F 36.1 °F 26.6 °F 49% 29.90 in 10.0 mi SW 21.9 mph 33.4 mph N/A   Overcast
4:55 PM 44.6 °F 37.4 °F 26.6 °F 49% 29.90 in 10.0 mi SSW 16.1 mph 24.2 mph N/A   Overcast
5:15 PM 44.6 °F 38.1 °F 28.4 °F 53% 29.90 in 10.0 mi SW 13.8 mph - N/A   Overcast
5:35 PM 44.6 °F 37.8 °F 30.2 °F 57% 29.90 in 10.0 mi SSW 15.0 mph 20.7 mph N/A   Overcast
5:55 PM 42.8 °F 33.1 °F 30.2 °F 61% 29.90 in 10.0 mi SW 25.3 mph 34.5 mph N/A   Drizzle
6:15 PM 39.2 °F 32.0 °F 32.0 °F 75% 29.91 in 7.0 mi SW 11.5 mph 17.3 mph N/A Rain Light Rain
6:35 PM 39.2 °F 31.6 °F 32.0 °F 75% 29.91 in 10.0 mi NW 12.7 mph 18.4 mph N/A Rain Light Rain
6:55 PM 37.4 °F 30.3 °F 32.0 °F 81% 29.92 in 10.0 mi NW 10.4 mph - N/A   Overcast
7:15 PM 37.4 °F 29.3 °F 32.0 °F 81% 29.91 in 10.0 mi NW 12.7 mph 16.1 mph N/A   Overcast
7:35 PM 37.4 °F 30.8 °F 32.0 °F 81% 29.91 in 10.0 mi NNW 9.2 mph - N/A   Overcast
7:55 PM 35.6 °F 30.7 °F 32.0 °F 87% 29.92 in 10.0 mi NW 5.8 mph - N/A   Overcast
8:15 PM 35.6 °F 32.8 °F 32.0 °F 87% 29.92 in 10.0 mi West 3.5 mph - N/A   Overcast
8:35 PM 35.6 °F - 32.0 °F 87% 29.91 in 10.0 mi Calm Calm - N/A   Scattered Clouds
8:55 PM 35.6 °F - 32.0 °F 87% 29.92 in 10.0 mi Calm Calm - N/A   Mostly Cloudy
10:15 PM 33.8 °F 28.6 °F 32.0 °F 93% 29.95 in 10.0 mi WSW 5.8 mph - N/A   Mostly Cloudy
10:35 PM 32.0 °F 26.4 °F 32.0 °F 100% 29.96 in 10.0 mi WSW 5.8 mph - N/A   Mostly Cloudy
10:55 PM 32.0 °F 25.6 °F 32.0 °F 100% 29.96 in 10.0 mi WSW 6.9 mph - N/A   Scattered Clouds
11:35 PM 32.0 °F 26.4 °F 32.0 °F 100% 29.96 in 10.0 mi West 5.8 mph - N/A   Scattered Clouds
11:55 PM 32.0 °F 27.5 °F 32.0 °F 100% 29.96 in 10.0 mi WSW 4.6 mph - N/A   Clear